Location: Ferchesar
(52.6477°N, 12.4298°E)
Time: 02:49:20
(UTC+01:00)

BUGSAT 1 - Pass Details

Date: 25 October 2021
Orbit: 558 x 601 km, 98.1° (Epoch: 01 December)

Event Time Altitude Azimuth Distance (km) Brightness Sun altitude
Rises 07:11:21 0° 7° (N) 2,760 ? -7.1°
Reaches altitude 10° 07:13:39 10° 357° (N) 1,860 ? -6.8°
Maximum altitude 07:17:12 31° 296° (WNW) 1,005 ? -6.2°
Drops below altitude 10° 07:20:45 10° 234° (SW) 1,857 ? -5.7°
Sets 07:23:03 0° 223° (SW) 2,755 ? -5.4°
